Wind_Speed
22 24 27 30 30 27 24 21 20 20 22 22 24 23 25 29 31 33 35 35 35 34 32 33 32 29 29 32 33 34 32 31 31 25 21 20 19 19 20 19 17 15 12 13
27 26 30 29 27 23 21 21 22 22 24 24 25 25 26 32 35 36 36 34 33 32 32 30 28 25 25 29 29 28 30 28 27 23 23 19 17 17 20 20 18 16 14 14
28 27 28 26 23 22 21 22 22 23 25 26 28 29 29 35 35 34 32 29 26 25 25 22 19 19 19 20 20 21 24 25 28 28 28 23 19 18 20 21 21 19 16 16
27 26 26 24 20 22 21 23 23 24 26 26 28 31 32 33 30 28 24 21 19 17 16 12 12 13 14 13 13 17 13 16 15 22 22 20 20 20 20 23 23 22 20 19
27 25 25 23 21 23 21 23 23 24 26 27 28 32 30 30 26 23 18 15 15 13 11 10 12 16 15 12 13 12 10 13 13 15 15 18 21 22 21 23 24 21 19 19
26 24 23 22 21 21 21 22 23 25 27 28 28 29 27 24 21 20 18 16 16 17 17 17 19 19 16 15 14 12 12 13 14 17 25 22 22 22 22 22 21 21 20 20
23 21 21 21 20 21 20 21 23 26 26 27 26 25 23 19 18 19 19 16 16 17 17 17 15 12 11 14 14 15 11 14 17 18 24 23 20 19 21 22 22 21 21 20
19 21 21 20 20 21 21 22 25 26 27 27 25 22 22 19 17 16 15 15 17 18 17 17 15 14 16 16 16 18 18 19 23 23 24 22 20 19 20 22 22 21 19 17
19 21 20 20 21 22 23 25 27 28 30 27 22 21 25 21 18 18 18 20 21 21 20 19 20 19 19 20 20 20 23 25 27 27 26 21 20 20 21 22 23 22 18 15
20 20 20 20 22 24 25 26 26 27 27 26 23 21 21 21 21 22 22 22 22 22 22 21 21 20 20 23 24 24 22 25 28 30 27 22 22 23 23 23 25 25 22 18
20 21 22 21 22 24 27 27 26 26 27 27 22 18 21 19 19 21 22 21 21 21 20 22 23 23 24 25 27 27 24 17 21 26 27 23 21 24 24 24 27 28 28 27
22 22 22 22 24 25 27 26 25 25 25 25 24 17 22 19 19 19 18 16 17 17 16 16 18 20 22 24 24 21 17 13 17 22 28 21 21 23 24 25 26 27 28 28
24 23 22 23 23 24 25 24 24 26 25 26 25 21 23 21 18 16 15 13 12 14 14 14 14 15 16 17 18 19 19 17 16 19 27 27 23 23 24 24 23 23 26 26
25 25 25 25 25 26 25 24 24 25 23 23 20 19 20 19 13 13 12 10 10 13 14 13 13 13 13 13 12 12 15 18 18 20 23 24 24 24 25 24 23 23 24 24
27 28 29 29 28 29 28 24 22 21 20 19 17 19 18 17 11 12 11 11 13 17 19 18 16 16 14 12 10 10 11 13 15 17 20 25 25 24 23 23 22 22 23 24
32 33 33 30 30 30 28 24 20 17 16 16 17 16 20 13 12 12 12 14 17 19 20 21 20 19 18 17 17 16 19 20 20 19 21 23 22 22 23 23 23 23 23 23
33 33 31 30 30 29 26 21 16 13 14 14 13 12 16 13 12 13 14 17 19 21 23 25 26 25 24 23 22 22 22 24 25 26 26 25 25 25 26 27 26 27 28 29
20 20 19 19 23 25 16 14 11 10 12 11 9 10 12 12 12 14 18 20 21 24 26 27 28 29 28 27 26 27 26 26 27 27 27 27 26 25 23 25 26 26 26 29
10 11 10 7 7 11 9 8 8 9 12 11 9 8 10 12 15 18 20 22 24 25 25 26 28 29 30 29 29 29 29 30 30 29 27 27 28 28 27 27 27 26 25 26
14 8 8 10 8 6 5 5 5 7 8 8 8 9 10 12 14 18 21 23 24 24 26 28 29 29 28 28 28 30 30 30 30 30 29 30 29 27 27 26 26 26 26 24
7 7 6 6 6 5 4 4 5 6 8 7 9 11 12 15 17 21 25 26 24 24 26 27 26 25 25 25 26 28 29 29 29 29 29 30 30 29 27 25 23 24 23 21
10 11 8 7 7 9 8 9 9 10 11 13 13 14 15 17 20 23 25 25 23 23 23 22 21 21 22 24 27 30 31 32 30 29 28 28 29 30 28 28 24 21 21 20
15 14 13 11 11 12 10 10 12 13 14 15 16 15 16 18 21 24 25 23 22 21 19 18 18 19 21 23 26 29 32 35 34 30 28 27 28 28 29 28 27 23 22 23
17 17 16 14 14 13 10 11 15 14 15 17 17 16 16 18 22 25 23 21 20 18 17 17 18 20 22 23 25 26 28 31 32 28 27 26 27 27 27 27 27 26 24 23
20 17 16 15 16 13 12 14 16 15 15 15 16 15 16 19 22 21 19 18 17 16 15 17 19 21 23 25 27 27 22 18 16 13 18 22 23 24 25 26 26 26 25 24
20 19 18 16 17 13 12 16 16 14 14 14 13 13 16 18 18 17 17 16 16 15 15 17 21 24 24 23 24 23 17 8 5 7 12 17 19 19 22 25 25 23 22 22
Wind_Direction
274 275 279 280 280 280 280 276 277 281 286 293 295 299 301 303 305 306 304 300 296 293 290 288 288 288 285 286 289 287 282 278 276 267 242 233 231 224 219 215 216 219 224 227
272 277 275 274 276 275 272 273 276 283 288 293 296 300 304 303 304 305 302 299 295 293 291 289 289 287 282 284 288 280 279 277 268 245 220 221 218 219 212 210 214 221 224 223
275 272 269 270 270 271 271 273 279 285 288 294 299 303 308 305 306 305 303 300 297 294 291 290 291 293 296 293 282 276 279 268 262 236 210 213 217 219 218 219 219 219 220 220
262 259 260 262 264 265 269 276 282 287 292 300 305 306 310 308 308 306 304 302 299 299 296 291 294 299 294 286 279 279 277 267 242 210 200 219 223 225 228 226 226 223 222 224
250 250 254 257 259 264 271 277 284 292 297 303 308 309 311 309 307 307 307 305 304 308 308 299 300 306 294 279 279 269 264 257 226 197 205 229 237 235 233 230 228 228 230 233
247 248 252 258 262 268 274 281 288 293 298 303 309 310 308 304 300 302 304 306 302 302 299 297 298 296 286 279 278 264 260 250 235 214 226 222 232 236 233 228 229 233 239 244
248 251 254 259 265 270 277 285 291 294 297 302 309 309 306 301 299 300 303 307 306 302 297 298 302 298 280 287 288 280 268 245 232 223 228 230 229 231 231 229 230 233 238 243
248 252 256 262 267 274 277 280 282 288 293 300 307 305 303 302 302 301 303 305 306 305 299 291 287 289 288 286 286 279 271 249 230 221 221 223 224 228 232 231 231 232 234 241
247 253 259 263 268 271 276 279 285 288 292 296 297 295 293 294 297 297 299 301 301 298 296 293 289 284 281 281 284 286 285 262 236 232 223 221 224 226 232 235 235 236 234 237
249 254 259 264 269 273 278 283 285 287 290 293 296 293 288 291 298 301 304 302 301 297 291 285 284 281 277 274 272 278 285 270 237 222 217 219 226 227 231 239 243 240 235 230
249 252 260 265 273 279 283 284 283 282 286 289 293 294 287 290 293 296 301 305 306 305 301 288 278 277 277 281 282 283 295 282 240 224 215 218 227 238 243 244 247 244 241 236
250 254 260 268 275 281 280 281 283 284 287 286 285 283 282 296 295 295 300 304 311 317 315 304 296 288 283 284 286 285 283 265 246 235 225 232 239 244 251 250 248 245 243 237
253 258 262 267 269 272 273 276 279 282 282 284 287 278 283 292 297 295 296 304 316 323 324 321 315 306 296 292 288 283 277 268 256 240 232 238 247 251 251 250 247 245 241 238
258 259 261 260 261 267 267 269 275 278 279 284 287 283 282 291 286 283 292 303 319 323 323 327 327 322 318 311 298 282 272 261 249 240 231 232 242 250 252 249 243 241 239 241
261 263 265 267 267 265 264 266 270 270 275 281 281 283 275 277 267 276 289 301 311 314 315 315 312 307 306 303 291 284 279 266 253 253 252 243 242 250 251 246 240 238 238 239
264 264 266 265 257 254 254 257 262 264 272 279 279 272 271 274 269 272 285 299 304 305 306 305 304 301 299 294 286 276 270 266 263 269 276 271 257 250 246 245 247 247 242 237
266 266 264 259 253 251 250 245 246 259 278 284 283 270 274 279 282 283 291 297 300 299 300 301 302 303 300 293 288 285 276 266 262 261 262 267 269 259 250 246 248 250 249 245
261 248 247 243 237 240 234 221 237 267 285 291 284 272 279 289 294 296 297 299 297 296 297 299 300 300 298 294 287 282 278 274 272 269 265 264 264 260 256 253 251 253 252 245
182 197 195 185 203 195 206 229 253 270 279 281 284 290 297 303 304 304 305 306 305 304 305 303 301 299 296 292 288 284 277 271 270 271 269 265 262 256 252 252 252 251 250 248
132 145 158 156 165 168 200 230 261 279 276 280 296 311 318 323 329 328 327 323 315 310 308 305 302 300 296 293 291 288 284 278 272 269 267 263 260 254 250 248 248 248 249 248
170 191 188 173 182 220 248 271 283 273 278 294 305 308 309 315 319 325 331 327 315 307 306 306 303 301 299 297 293 288 285 281 276 271 265 261 258 254 250 245 244 243 242 241
216 221 217 206 214 242 270 283 276 276 284 288 290 294 297 301 310 320 323 321 314 310 308 308 307 307 306 302 296 289 283 280 275 269 263 258 255 252 249 244 241 237 232 237
237 239 240 239 244 253 270 279 279 281 286 292 301 303 295 298 309 318 320 318 316 314 312 313 314 311 311 308 301 290 281 275 269 264 259 255 251 250 246 241 236 232 228 234
239 241 245 248 253 257 265 275 280 285 289 297 307 308 297 303 312 318 319 317 315 315 319 320 319 323 326 324 320 309 293 279 270 259 253 252 245 244 242 238 234 230 230 235
231 235 243 248 254 258 267 275 280 293 301 304 303 303 305 310 315 319 319 315 317 322 324 324 330 336 337 336 336 330 318 294 273 248 239 241 237 235 237 233 232 232 232 236
223 232 241 249 252 254 259 268 281 303 308 304 305 309 311 313 318 323 322 321 325 327 325 331 340 341 340 341 346 349 351 345 284 236 225 223 224 227 230 229 229 231 235 241
Height
5875 5877 5877 5877 5876 5877 5877 5877 5877 5876 5874 5874 5872 5871 5868 5864 5861 5859 5857 5854 5851 5848 5845 5842 5841 5840 5837 5834 5831 5830 5828 5828 5830 5831 5832 5834 5837 5839 5841 5843 5845 5846 5847 5848
5870 5871 5871 5871 5872 5871 5871 5872 5872 5872 5870 5869 5867 5867 5864 5859 5855 5853 5849 5846 5842 5839 5837 5835 5833 5833 5832 5829 5827 5824 5823 5823 5822 5825 5828 5831 5833 5834 5836 5838 5839 5842 5843 5845
5862 5865 5866 5867 5867 5867 5867 5868 5867 5867 5866 5864 5862 5861 5859 5853 5850 5846 5842 5838 5836 5833 5830 5828 5827 5826 5825 5823 5821 5819 5817 5816 5816 5819 5822 5827 5830 5831 5833 5834 5835 5837 5840 5841
5857 5859 5861 5862 5864 5863 5863 5863 5863 5862 5861 5859 5858 5855 5852 5847 5843 5840 5837 5833 5830 5827 5825 5824 5823 5822 5821 5819 5817 5815 5812 5812 5811 5814 5818 5822 5825 5827 5829 5830 5831 5832 5835 5836
5852 5854 5855 5857 5858 5858 5859 5858 5858 5856 5855 5854 5852 5849 5847 5841 5837 5834 5832 5829 5826 5824 5822 5822 5820 5819 5817 5815 5813 5812 5809 5809 5810 5812 5815 5818 5820 5822 5824 5825 5825 5827 5830 5831
5847 5849 5851 5852 5853 5854 5853 5853 5853 5852 5850 5850 5847 5844 5842 5837 5833 5830 5828 5826 5823 5821 5820 5819 5818 5815 5813 5811 5810 5808 5807 5807 5808 5810 5811 5813 5815 5816 5818 5820 5821 5823 5825 5826
5843 5845 5845 5847 5848 5848 5849 5849 5849 5848 5846 5845 5842 5839 5837 5832 5829 5826 5823 5821 5819 5818 5816 5815 5814 5812 5810 5809 5808 5806 5804 5804 5806 5807 5809 5810 5811 5812 5813 5815 5817 5819 5820 5820
5840 5840 5841 5842 5843 5844 5844 5845 5845 5844 5842 5840 5837 5834 5832 5829 5825 5822 5820 5818 5815 5813 5811 5810 5810 5809 5806 5805 5804 5802 5802 5802 5802 5803 5804 5806 5807 5809 5810 5811 5812 5814 5814 5815
5835 5836 5837 5837 5838 5839 5838 5838 5837 5837 5834 5833 5833 5831 5827 5824 5821 5817 5815 5813 5810 5808 5806 5805 5804 5804 5803 5801 5800 5798 5798 5797 5799 5801 5800 5802 5803 5805 5806 5807 5808 5810 5809 5810
5829 5831 5832 5832 5832 5833 5834 5833 5832 5829 5828 5827 5827 5825 5821 5818 5815 5812 5810 5807 5804 5802 5800 5799 5799 5798 5798 5796 5795 5794 5792 5788 5791 5796 5796 5797 5798 5800 5801 5802 5804 5805 5806 5807
5825 5826 5827 5827 5828 5828 5827 5827 5825 5824 5823 5821 5820 5823 5815 5814 5812 5809 5805 5802 5799 5797 5795 5793 5791 5791 5791 5790 5789 5788 5786 5786 5789 5790 5790 5791 5792 5796 5797 5797 5798 5799 5800 5803
5819 5821 5822 5822 5822 5821 5821 5821 5820 5819 5817 5814 5814 5818 5810 5808 5806 5804 5801 5799 5796 5793 5791 5788 5786 5785 5785 5784 5783 5782 5782 5782 5783 5784 5785 5785 5787 5790 5791 5791 5792 5792 5794 5796
5813 5815 5816 5817 5818 5816 5815 5815 5814 5813 5812 5809 5808 5810 5804 5804 5802 5800 5798 5796 5794 5791 5788 5785 5783 5781 5780 5779 5778 5776 5775 5775 5777 5778 5780 5780 5781 5783 5784 5784 5785 5786 5788 5790
5807 5808 5810 5812 5811 5810 5809 5810 5809 5807 5806 5804 5803 5802 5800 5798 5798 5796 5794 5792 5790 5788 5786 5783 5781 5778 5776 5775 5773 5772 5772 5771 5772 5773 5773 5774 5775 5776 5776 5777 5778 5780 5782 5784
5801 5802 5802 5803 5803 5803 5803 5804 5803 5801 5800 5799 5798 5795 5795 5794 5794 5792 5790 5788 5786 5785 5781 5779 5778 5776 5774 5773 5771 5770 5770 5768 5768 5768 5767 5768 5768 5767 5768 5770 5771 5774 5775 5777
5793 5793 5794 5795 5795 5794 5795 5797 5797 5795 5795 5794 5793 5792 5789 5789 5790 5788 5787 5784 5782 5779 5776 5774 5772 5771 5769 5768 5767 5766 5766 5765 5764 5764 5763 5761 5759 5760 5762 5763 5765 5767 5769 5771
5784 5785 5785 5785 5785 5786 5788 5791 5791 5790 5789 5790 5789 5789 5786 5785 5785 5784 5782 5780 5777 5774 5770 5768 5766 5764 5762 5761 5760 5758 5757 5757 5756 5755 5755 5754 5753 5754 5755 5756 5758 5760 5762 5764
5775 5775 5777 5777 5777 5779 5784 5785 5786 5786 5786 5786 5785 5783 5782 5782 5780 5779 5777 5774 5772 5768 5765 5762 5759 5756 5754 5752 5751 5750 5749 5748 5747 5746 5746 5745 5746 5747 5748 5749 5751 5753 5754 5756
5770 5772 5773 5775 5775 5778 5780 5781 5781 5782 5782 5782 5781 5780 5779 5778 5776 5773 5771 5768 5765 5762 5758 5755 5751 5748 5745 5743 5741 5740 5739 5738 5737 5737 5738 5738 5738 5739 5741 5743 5744 5746 5747 5748
5768 5770 5772 5773 5775 5776 5779 5779 5779 5781 5780 5779 5777 5777 5775 5774 5772 5769 5765 5762 5758 5755 5751 5748 5744 5741 5737 5734 5732 5730 5728 5728 5727 5727 5729 5729 5730 5731 5732 5734 5737 5738 5739 5741
5768 5770 5772 5773 5773 5774 5776 5776 5777 5779 5778 5776 5774 5773 5772 5770 5768 5765 5761 5756 5753 5749 5745 5741 5738 5734 5731 5728 5725 5722 5719 5718 5717 5717 5718 5718 5720 5721 5724 5726 5728 5730 5733 5735
5767 5769 5770 5771 5771 5774 5773 5773 5774 5774 5773 5772 5771 5770 5768 5766 5763 5760 5756 5751 5747 5743 5740 5736 5732 5728 5725 5722 5718 5714 5710 5708 5706 5706 5707 5708 5710 5712 5715 5718 5720 5723 5726 5729
5764 5767 5767 5769 5771 5770 5770 5770 5769 5769 5769 5768 5767 5766 5763 5761 5758 5755 5750 5746 5742 5738 5734 5730 5727 5724 5719 5714 5709 5703 5699 5696 5694 5695 5696 5698 5700 5703 5706 5710 5713 5717 5720 5723
5759 5760 5763 5764 5765 5766 5766 5766 5765 5765 5765 5764 5762 5760 5758 5756 5753 5749 5745 5741 5737 5733 5730 5727 5724 5718 5712 5706 5699 5692 5686 5681 5680 5682 5685 5688 5692 5695 5699 5702 5707 5711 5715 5717
5753 5756 5758 5760 5760 5761 5762 5762 5761 5761 5761 5759 5758 5756 5754 5751 5748 5744 5740 5737 5733 5730 5727 5724 5719 5713 5707 5700 5693 5685 5676 5671 5669 5671 5675 5680 5684 5688 5692 5696 5701 5706 5710 5713
5749 5751 5753 5755 5756 5757 5758 5757 5757 5758 5756 5755 5753 5752 5749 5746 5743 5740 5737 5734 5730 5727 5725 5721 5715 5709 5702 5697 5690 5682 5674 5669 5668 5668 5671 5676 5680 5683 5687 5692 5697 5701 5705 5707